RH
48 49 49 49 48 47 48 48 50 53 56 59 60 61 66 72 75 77 80 81 81 81 81 82 80 78 77 71 64 64 62 56 56 55 47 37 28 25 26 26 30 34 34 29 25 24 26 29 30 29 30 30 27 27 29 32 38 43 42 42 44 44 41 33 27 25 23 22 23 24 23 22 23 26 27 25 23 25 30 31 31 30 29 27 25
47 47 47 47 47 48 48 49 51 53 57 60 61 60 62 67 70 72 73 74 76 80 82 83 81 77 76 72 65 64 63 58 56 53 46 38 30 24 23 23 26 31 32 27 25 24 25 28 31 28 27 29 28 26 27 31 36 37 37 41 44 43 39 33 28 27 26 25 26 25 25 25 26 29 29 27 28 31 32 33 34 33 32 31 28
45 44 45 47 48 48 49 50 51 53 55 59 62 62 61 63 67 70 72 71 71 75 81 84 83 80 78 73 67 65 63 58 57 55 48 41 34 25 21 21 22 24 25 25 25 23 22 26 30 27 23 24 27 28 28 31 32 32 35 39 39 37 32 29 29 29 28 28 28 28 28 27 29 31 30 29 31 34 34 35 36 35 34 32 29
39 39 41 44 46 48 49 51 52 53 53 55 58 60 62 63 66 69 72 73 73 74 78 83 85 83 79 75 72 71 66 59 58 57 51 44 35 24 21 21 19 17 17 20 23 23 22 23 24 22 18 19 24 28 28 28 29 31 34 34 33 32 30 29 31 31 29 30 30 30 30 29 30 32 32 30 31 34 35 36 36 35 34 33 30
36 36 38 40 41 44 47 48 49 50 51 53 54 57 60 64 68 70 70 71 74 76 77 80 84 85 80 78 78 77 71 61 59 58 54 47 37 26 22 21 17 13 13 17 22 25 26 24 21 17 15 19 25 27 26 26 27 28 30 28 27 28 30 32 32 30 29 29 30 32 32 31 32 34 33 31 31 33 34 35 35 33 33 33 30
36 38 38 37 37 39 41 41 43 46 49 50 52 55 59 62 66 69 70 69 72 77 78 78 82 85 84 83 84 81 74 64 60 59 55 49 41 33 26 21 14 11 12 15 19 23 25 23 19 15 15 19 24 25 25 25 23 24 26 25 25 27 30 32 32 31 30 29 29 31 32 32 33 34 32 31 31 32 33 34 34 31 31 33 30
36 37 37 35 34 35 35 34 36 40 45 48 51 54 58 60 63 65 69 69 70 73 76 77 81 85 86 86 86 83 77 69 63 59 56 52 45 37 29 19 12 11 11 13 15 19 21 18 15 14 14 17 19 22 25 25 23 23 26 28 28 30 31 32 33 33 32 30 30 31 32 32 33 33 31 30 32 33 33 33 34 30 29 32 30
38 39 39 37 33 33 33 32 30 31 35 39 46 53 58 61 63 65 68 72 72 72 74 76 80 83 85 87 88 85 80 75 67 59 57 54 49 42 31 18 12 11 11 12 14 17 18 16 13 13 13 14 15 18 23 25 25 25 27 29 31 32 33 33 34 33 32 31 30 30 31 32 33 32 30 29 30 31 33 33 33 31 30 32 31
43 43 44 41 38 34 32 30 29 28 29 32 39 46 52 56 59 62 66 71 75 77 77 79 83 87 88 87 87 86 82 78 73 63 58 56 51 47 36 19 12 12 11 13 17 18 17 14 13 13 12 12 12 14 19 24 27 27 28 30 32 32 34 35 34 34 33 30 28 29 29 29 29 29 28 28 27 28 31 32 32 32 30 32 32
43 43 42 41 38 36 33 30 29 28 27 29 34 37 39 42 46 51 57 62 69 76 81 84 85 88 91 90 87 87 84 82 78 70 62 57 54 52 43 24 14 13 12 14 18 19 17 13 11 11 10 9 9 10 13 21 27 28 28 30 32 32 33 34 33 32 30 27 25 25 26 26 26 25 25 26 27 27 29 30 30 31 29 30 33
38 37 36 35 33 30 27 26 25 24 24 26 28 30 31 32 34 39 47 54 61 70 79 86 88 88 91 93 92 92 87 83 81 76 67 60 56 56 49 32 18 14 13 15 18 19 17 13 10 10 8 7 7 7 9 16 24 29 30 29 29 30 32 32 29 27 26 25 24 24 24 24 24 24 24 26 26 26 28 29 28 28 27 27 31
27 26 26 28 29 27 23 21 19 19 20 21 23 25 28 29 28 31 38 45 53 62 72 82 89 88 89 90 90 91 88 84 81 78 72 64 57 58 55 40 25 16 13 15 18 19 18 14 11 10 7 6 6 6 8 11 17 25 30 30 29 29 29 27 25 24 24 24 23 23 23 23 24 24 24 25 25 25 28 28 27 27 27 27 29
18 18 19 23 27 29 27 22 17 15 17 19 20 22 24 25 26 28 33 38 43 51 62 75 86 90 91 92 92 91 89 86 83 78 74 67 60 58 57 48 34 22 15 15 17 18 17 16 13 9 7 6 5 6 7 9 11 17 24 28 29 27 26 24 23 22 22 23 23 23 23 23 24 24 25 25 25 26 28 28 28 28 28 28 28
16 16 17 19 23 26 26 22 17 14 16 18 19 21 22 24 26 28 33 38 40 43 51 64 79 90 92 93 95 95 92 90 87 82 76 70 63 60 58 52 42 30 20 15 16 17 16 16 14 10 7 6 6 6 7 9 10 13 17 22 25 24 23 22 22 21 21 21 22 23 23 24 25 25 25 26 25 26 27 27 27 29 29 29 27
14 16 16 16 18 20 21 19 16 16 18 19 19 21 22 24 28 28 31 37 39 39 44 52 68 84 93 93 93 95 95 92 90 87 83 76 68 62 59 55 48 38 27 19 16 16 16 16 14 11 8 6 6 6 7 8 10 11 14 17 19 19 17 18 19 20 21 21 22 23 23 23 24 24 25 26 25 26 26 24 25 28 29 28 24
13 15 17 17 17 18 19 20 18 19 21 21 20 22 22 23 26 27 31 34 35 35 40 45 53 68 83 91 94 95 96 94 92 90 88 84 75 67 63 59 52 43 35 26 20 16 16 16 13 11 8 6 6 7 7 8 9 10 12 13 14 14 13 13 14 17 20 22 22 23 23 22 23 24 25 26 26 26 25 22 23 26 26 25 23
14 16 18 18 18 20 22 22 20 21 24 23 22 22 22 22 23 26 31 33 32 31 35 40 43 49 59 73 87 95 98 97 97 94 92 90 84 75 67 62 57 48 40 34 27 20 17 15 13 11 9 7 7 7 7 8 8 9 11 10 10 10 10 9 10 13 18 22 23 23 22 22 23 23 25 26 25 26 25 21 21 23 23 24 25
17 17 18 18 18 19 20 22 21 21 23 24 23 22 22 23 25 28 32 34 33 32 34 38 44 46 46 54 71 87 96 98 98 97 94 92 89 82 72 66 61 53 45 39 35 27 19 16 13 11 10 8 7 7 7 7 8 9 10 10 9 9 8 7 7 9 14 19 22 23 23 23 23 23 24 25 25 26 24 20 18 20 23 25 27
18 18 18 18 17 17 19 20 20 20 23 24 24 23 23 25 27 28 31 35 36 37 37 41 48 52 50 49 56 71 87 95 99 99 95 91 91 87 79 71 65 59 51 43 39 34 27 19 14 11 10 9 8 7 7 7 8 8 9 10 10 9 8 7 6 7 10 14 19 22 23 23 24 24 24 24 25 26 25 19 17 20 24 25 26
20 19 17 16 16 17 20 21 21 21 22 22 22 22 23 26 27 26 27 31 36 39 41 42 46 50 52 51 51 59 71 83 94 99 97 95 94 90 84 76 70 65 60 50 43 39 34 27 19 12 10 9 9 8 7 7 8 8 9 10 10 9 8 7 6 6 7 9 13 17 19 21 22 22 22 21 20 20 19 17 16 20 24 24 24
20 18 16 15 15 16 18 20 22 21 20 18 18 20 23 26 26 25 26 29 32 37 41 41 41 45 49 50 52 58 66 74 84 92 96 98 98 94 88 83 76 72 68 59 49 43 40 37 30 19 12 9 8 8 8 7 7 7 8 9 11 13 11 8 7 7 6 6 7 9 11 13 15 15 14 13 12 12 13 15 17 19 22 23 23
21 20 17 15 14 13 13 14 16 17 17 18 19 20 21 24 26 25 25 27 30 35 39 42 46 49 50 47 47 52 60 67 77 88 92 97 100 96 91 88 83 78 74 68 58 49 45 45 41 30 19 12 10 9 8 8 7 7 7 8 11 14 13 9 7 7 6 6 6 5 6 6 7 8 8 8 9 9 11 15 18 20 21 22 22
23 20 17 14 12 11 11 12 13 14 18 23 25 23 21 23 25 24 24 24 26 30 35 39 44 49 51 49 45 45 48 53 67 85 92 94 98 99 95 94 91 85 79 74 67 59 54 52 49 40 31 23 14 9 8 8 7 7 7 7 9 14 13 8 6 6 6 5 5 5 5 5 5 6 6 6 8 9 11 16 19 21 22 22 22
21 18 15 13 12 12 13 13 14 17 22 25 27 26 25 24 24 24 24 23 23 25 29 32 34 39 48 52 48 46 45 45 55 75 87 90 94 98 99 98 97 91 85 79 72 66 64 62 56 47 41 34 25 14 8 7 8 8 7 7 9 13 13 8 7 9 9 7 6 5 5 5 5 5 5 5 8 9 11 18 22 22 20 22 24
16 14 13 13 12 14 15 16 18 22 25 25 26 27 28 28 26 25 23 21 20 21 24 27 28 31 41 50 49 47 46 45 50 64 77 85 91 94 96 98 99 95 89 84 78 73 72 71 64 54 47 41 34 25 15 10 8 8 8 8 8 11 12 9 9 10 12 12 12 11 10 12 11 8 6 6 6 8 12 20 25 22 18 20 24
13 14 14 14 14 14 16 18 20 22 23 23 24 26 27 28 28 27 23 20 18 18 20 25 27 28 34 45 49 47 45 46 50 58 69 79 88 92 93 95 98 99 94 88 84 81 79 78 74 67 58 47 40 34 27 18 12 9 8 8 8 9 11 11 10 11 13 15 16 15 15 17 17 15 12 10 9 10 14 20 21 18 15 17 23
14 15 15 14 15 16 17 18 20 21 20 19 20 22 23 24 27 28 27 24 21 19 21 27 29 30 33 40 46 46 44 45 48 53 61 75 86 92 93 94 96 99 98 92 88 86 85 83 82 81 74 60 47 42 37 30 21 13 10 9 9 9 10 11 11 12 14 16 17 17 16 18 20 18 17 16 15 16 16 16 14 12 13 17 22
16 16 16 16 17 17 18 20 21 21 20 19 19 20 21 22 24 27 30 31 29 26 27 29 31 33 35 38 41 43 44 45 46 47 54 70 84 91 94 94 94 96 97 95 91 89 89 89 89 88 84 71 55 47 45 41 34 23 15 11 10 10 10 11 12 15 16 16 18 18 17 17 18 18 18 18 17 18 18 15 11 9 11 15 17
18 17 17 18 19 19 20 20 23 24 23 21 21 21 23 24 25 27 30 32 33 33 31 30 32 33 35 36 37 39 41 44 46 44 47 59 73 83 89 93 95 95 97 98 96 92 90 90 91 91 89 78 62 52 51 50 45 36 25 17 13 12 11 11 12 15 17 17 18 18 17 16 17 17 17 17 18 19 18 13 9 8 10 12 13
18 17 18 18 19 20 21 21 23 25 26 24 23 22 23 24 26 27 28 29 32 33 32 31 31 32 32 32 33 34 37 41 45 44 43 49 61 73 80 85 91 95 97 99 100 97 92 89 88 90 92 85 71 59 54 53 51 47 39 29 20 16 14 13 12 14 17 18 18 18 18 17 17 16 16 17 17 17 16 11 8 8 10 11 13
17 17 18 19 20 21 21 22 23 24 26 27 27 25 24 23 24 24 26 27 29 31 32 31 30 31 30 29 29 30 33 37 42 45 44 44 52 67 78 81 84 90 94 97 99 97 95 91 87 87 90 91 82 68 59 55 55 52 48 41 32 23 19 16 15 15 18 19 19 20 20 19 19 18 18 17 17 14 13 11 10 12 14 16 17
18 19 19 20 22 23 23 24 24 24 25 27 29 29 28 27 25 24 24 25 27 30 33 32 30 30 29 28 27 28 29 32 37 42 46 45 50 63 78 84 85 87 93 97 97 96 96 97 92 87 87 90 88 77 66 60 58 57 53 48 41 32 26 21 18 17 20 21 21 22 23 23 22 20 19 20 18 15 13 14 15 16 20 22 22
19 21 22 23 24 25 25 26 27 29 29 29 30 32 32 32 31 29 26 25 26 28 31 32 32 31 30 29 29 29 29 30 31 34 41 46 49 55 68 80 87 88 91 96 98 97 98 100 98 94 89 89 89 85 76 67 62 60 58 53 46 38 32 27 22 19 20 22 23 25 26 26 25 23 23 23 22 18 17 17 19 21 25 26 26
21 22 24 25 26 27 28 29 31 31 32 32 32 33 34 35 36 36 34 31 28 26 28 30 32 33 33 31 30 30 29 28 28 29 34 42 47 50 58 69 79 84 88 92 95 97 99 100 100 99 96 93 90 87 83 77 69 65 63 62 57 50 43 36 29 23 20 21 22 24 27 28 28 26 26 26 25 22 21 22 22 23 25 27 28
21 23 24 26 27 28 30 32 32 32 33 33 33 33 34 34 35 37 38 38 36 34 34 34 36 38 39 36 33 31 30 28 28 28 31 38 45 50 57 65 73 79 86 92 95 97 99 100 100 99 99 98 94 89 87 85 81 77 75 74 73 69 63 54 44 33 24 21 21 22 25 29 30 29 28 28 26 24 25 27 27 26 26 27 28
21 23 24 25 27 29 30 32 32 32 33 33 33 33 32 33 34 35 37 39 39 39 40 39 40 41 41 39 36 33 31 31 30 29 30 36 43 50 57 64 70 76 84 89 92 96 99 100 100 100 100 100 99 95 91 91 91 90 88 83 81 80 78 71 61 48 35 26 25 27 29 31 32 31 30 29 28 25 25 28 30 29 28 28 29
22 23 24 25 26 28 29 31 32 34 34 34 34 34 33 33 33 33 34 36 39 40 40 39 39 40 39 39 38 35 33 32 32 29 29 34 42 50 57 61 65 72 81 85 87 91 97 100 100 100 99 100 100 99 98 97 96 95 92 88 84 83 82 78 71 62 51 42 38 36 34 33 34 34 33 32 29 26 24 28 31 30 29 28 30
22 23 25 26 27 28 29 30 33 36 37 37 37 37 36 36 35 34 34 34 36 39 40 39 39 39 39 40 41 40 37 34 30 28 27 30 37 46 55 61 64 67 74 80 82 86 92 98 100 100 100 99 99 99 100 99 99 97 93 89 86 85 84 81 77 71 66 59 51 42 34 31 32 35 35 34 33 29 26 27 31 31 29 28 30
20 22 25 26 27 28 29 29 33 36 39 40 40 39 39 39 38 38 38 36 36 38 40 40 39 39 40 42 44 45 43 39 35 33 31 30 33 40 50 59 64 66 70 75 79 81 86 92 98 100 99 98 99 99 99 99 99 97 94 89 87 87 86 84 80 76 71 67 58 47 37 32 32 34 35 36 36 33 29 28 30 32 30 28 30
20 22 25 26 27 28 28 30 32 36 39 41 42 42 42 42 41 41 41 41 40 41 42 42 42 42 43 44 46 46 46 45 43 40 37 34 35 39 45 52 59 65 68 71 76 79 82 88 94 97 98 98 98 99 99 100 99 97 93 90 89 88 87 85 82 79 75 70 62 53 44 38 35 35 36 37 38 38 35 32 31 32 30 29 30
20 23 25 26 28 29 29 29 32 35 38 41 43 45 45 45 45 45 46 46 46 46 46 47 49 49 49 51 54 52 48 47 47 46 43 39 38 39 42 45 51 58 62 66 70 74 79 83 89 94 97 97 97 98 100 100 99 98 96 93 91 89 89 87 84 81 79 75 68 60 53 47 43 41 41 40 40 41 40 37 35 33 32 30 30
21 23 24 26 28 29 29 29 31 34 38 42 44 46 46 46 46 47 48 50 51 52 52 53 55 57 57 60 62 59 53 50 51 51 49 46 42 40 40 42 45 52 60 66 69 72 74 76 81 89 95 96 96 98 99 100 100 99 99 96 94 92 91 89 87 85 83 79 73 68 64 59 53 50 48 46 43 42 41 40 39 37 34 32 31
22 23 24 26 28 30 30 30 32 35 40 44 46 48 48 47 47 48 50 52 55 56 56 56 59 62 62 62 63 61 57 55 56 56 54 51 47 43 42 42 42 48 57 67 72 75 75 75 76 82 90 94 95 96 98 99 99 99 98 97 96 95 92 91 89 88 86 83 79 75 72 69 62 57 55 53 49 44 41 41 41 40 38 35 33
21 23 24 26 28 30 31 32 33 36 40 44 47 50 51 50 50 51 54 56 57 58 59 59 59 61 62 63 64 64 62 61 61 60 59 56 51 47 44 43 42 44 51 62 71 76 78 78 77 80 85 90 91 93 95 98 99 99 98 98 98 97 95 93 92 91 89 87 84 81 78 74 68 62 59 57 54 48 43 41 41 42 41 39 35
18 21 23 25 27 30 31 32 33 36 39 42 46 49 51 53 53 54 57 59 59 59 59 60 60 61 61 63 64 65 64 63 62 62 61 60 57 53 49 46 44 44 47 55 65 73 76 77 78 79 83 87 88 89 91 95 98 99 98 98 99 98 96 94 94 94 92 90 90 88 84 79 73 67 62 59 57 53 47 42 41 42 44 43 39
14 18 22 24 27 30 31 31 32 34 35 38 42 46 49 52 54 55 57 59 61 62 61 60 60 61 61 62 63 63 63 63 63 64 64 64 63 62 58 53 49 47 47 52 59 66 70 73 74 75 78 83 86 87 88 91 96 98 98 96 97 98 96 94 93 92 91 90 89 89 87 83 79 73 67 61 59 57 52 46 42 42 45 45 41
12 15 18 20 24 28 32 32 31 32 33 35 39 42 45 50 53 55 56 57 60 63 64 63 62 62 62 61 62 62 63 64 65 65 66 65 64 64 62 59 55 53 54 57 61 65 69 72 73 74 76 80 85 86 85 86 90 97 99 99 98 98 98 96 92 90 90 90 90 89 87 84 81 79 75 67 61 56 53 49 45 43 43 44 41
11 13 14 15 17 23 29 31 31 31 32 33 36 39 43 46 50 54 57 58 59 61 62 63 64 65 65 64 64 64 64 64 64 64 65 66 64 64 64 63 62 61 60 62 67 74 76 75 75 77 81 83 85 86 84 82 85 93 99 100 98 97 97 97 95 92 92 91 89 87 85 82 80 80 80 76 67 58 52 50 48 45 43 41 39
11 11 13 12 13 17 24 29 30 31 32 32 34 36 39 43 47 50 54 57 59 60 61 61 62 64 65 66 66 66 66 65 65 64 65 64 64 63 64 64 66 67 66 66 71 81 86 83 77 80 86 90 90 89 86 82 82 88 96 99 99 96 96 96 96 96 97 94 90 86 83 80 78 79 80 79 75 67 57 51 49 48 46 42 38
12 11 12 11 12 14 19 23 26 27 29 31 32 33 35 38 42 45 49 52 55 58 60 60 61 63 64 65 65 66 67 67 67 67 67 66 66 66 66 65 65 68 71 72 74 82 91 92 87 85 89 94 97 96 92 86 82 85 90 95 99 99 97 96 95 96 97 97 94 90 87 84 82 80 78 78 79 76 68 58 52 50 49 45 41
12 12 12 12 11 12 15 18 19 21 24 26 28 30 32 34 36 39 43 46 49 52 55 57 59 61 63 64 65 66 66 67 67 69 70 71 70 69 68 67 66 68 72 77 79 83 89 94 93 91 92 97 100 100 98 95 93 91 91 92 95 98 99 99 98 97 97 97 96 93 90 88 86 82 79 78 80 81 77 70 61 55 52 49 45